sat.trackr.live / text

‹ back to catalog

STARLINK-37519

NORAD 69298 · 2026-119C

PAYLOAD ACTIVE UNKNOWN

§ Identity

Operator
Country
US
Launch date
2026-05-30
Launch site
AFWTR
Launch vehicle
Mass (kg)
RCS (m²)

Purposes: comms

External: N2YO · Heavens-Above · Gunter

§ Orbital elements

Epoch: 2026-09-19T19:18:36.082656Z

Period
93.90 min
Inclination
97.2832°
Eccentricity
0.0000372
Mean motion
15.33472200 rev/d
Perigee alt
465.2 km
Apogee alt
465.7 km
Semi-major
6,843.6 km
B*
6.0892e-4
RAAN
287.5049°
Arg perigee
214.0431°
Mean anomaly
146.0787°
Rev number
1,855

§ Raw data

STARLINK-375191 69298U 26119C   26262.80458429  .00019651  00000+0  60892-3 0  99902 69298  97.2832 287.5049 0000372 214.0431 146.0787 15.33472200 18558

JSON: /api/v1/satellites/69298 · /tle

For live sub-satellite position, see the globe view (requires WebGL).

§ Visibility from observer

Set your observer location to see the next 7 days of passes ≥ 10°. The values pass through the URL so the page stays shareable.

No JS? Fill the form by hand. The geolocation button needs JavaScript.